Location: Graveley
(52.2500°N, 0.1667°W)
Time: 09:28:29
(UTC+00:00)

Daily predictions for brighter satellites

Satellite Brightness Start Highest point End
(mag) Time Altitude Azimuth Time Altitude Azimuth Time Altitude Azimuth
STARLINK-1204 3.7 20:55:19 10° W 20:59:28 83° N 21:03:39 10° E
STARLINK-1128 3.9 20:55:52 10° WNW 20:59:55 55° SSW 21:03:59 10° SE
STARLINK-1241 3.6 20:57:44 10° WSW 21:01:49 61° SSE 21:05:56 10° ENE
Cosmos 1300 Rocket 4.5 20:58:31 10° NNW 21:02:50 50° W 21:07:07 10° S
deb Kosmos-1763 4.1 20:59:15 10° NNW 21:02:52 78° WSW 21:06:28 10° SSE
STARLINK-1238 3.7 21:00:19 10° W 21:04:29 82° N 21:08:39 10° E
STARLINK-1113 4.0 21:00:51 10° WNW 21:04:54 52° SSW 21:08:56 10° SE
Aureole 2 Rocket 2.4 21:02:54 10° S 21:05:51 45° ESE 21:08:41 10° NE
Cosmos 1733 4.3 21:02:27 10° N 21:05:54 31° ENE 21:09:18 10° SE
STARLINK-1239 3.6 21:02:40 10° WSW 21:06:47 64° SSE 21:10:54 10° ENE
STARLINK-1201 3.8 21:05:18 10° W 21:09:28 81° N 21:13:37 10° E
STARLINK-1119 4.0 21:05:52 10° WNW 21:09:53 49° SSW 21:13:54 10° SE
Cosmos 1437 Rocket 2.7 21:07:11 10° S 21:10:59 86° E 21:14:51 10° NNE
STARLINK-1240 3.6 21:07:37 10° WSW 21:11:44 67° SSE 21:15:52 10° ENE
Cosmos 1378 3.9 21:10:12 10° SSE 21:13:37 35° E 21:17:02 10° NNE
ISS -1.2 21:13:32 10° SW 21:14:12 10° SW 21:14:52 10° SSW
STARLINK-1206 3.8 21:10:18 10° W 21:14:28 80° N 21:18:38 10° E
STARLINK-1114 4.1 21:10:50 10° WNW 21:14:49 47° SSW 21:18:48 10° SE
Meteor 1-15 Rocket 4.5 21:09:05 10° NNW 21:15:03 83° W 21:20:58 10° S
STARLINK-1203 3.6 21:12:25 10° WSW 21:16:36 71° SSE 21:20:48 10° ENE
STARLINK-1216 3.6 21:12:34 10° WSW 21:16:42 70° SSE 21:20:50 10° ENE
Lacrosse 5 3.8 21:13:28 10° W 21:17:00 19° SW 21:20:34 10° S
USA 215 3.8 21:11:04 10° E 21:17:30 62° N 21:23:57 10° WNW
Cosmos 304 Rocket 3.8 21:12:49 10° SSW 21:17:33 67° ESE 21:22:20 10° NNE
NOSS 8 (E) 4.0 21:15:32 10° SW 21:18:39 73° SE 21:21:45 10° NE
STARLINK-1205 3.8 21:15:16 10° W 21:19:26 80° N 21:23:36 10° E
STARLINK-1130 (DARKSAT) 4.2 21:15:50 10° WNW 21:19:47 44° SSW 21:23:37 11° SE
CENTAUR R/B 3.4 21:13:56 10° NW 21:21:38 69° NE 21:30:17 10° ESE
STARLINK-1237 3.6 21:17:32 10° WSW 21:21:40 73° SSE 21:25:49 10° ENE
NOSS 2-2 (D) 3.8 21:18:42 10° S 21:21:59 34° ESE 21:25:40 10° ENE
Cosmos 1092 Rocket 4.4 21:16:14 10° SSE 21:22:01 46° E 21:27:51 10° NNE
CZ-2C R/B 4.2 21:17:06 10° N 21:22:20 41° WNW 21:27:34 10° SW
STARLINK-1218 3.8 21:20:17 10° W 21:24:26 79° N 21:28:36 10° E
STARLINK-1084 4.2 21:20:50 10° W 21:24:45 42° SSW 21:28:24 12° SE
ATLAS 3B R/B 3.6 21:18:25 10° NW 21:24:51 45° NNE 21:31:28 10° E
Cosmos 1674 Rocket 3.7 21:21:48 10° SSW 21:26:12 79° WNW 21:30:38 10° N
SL-27 R/B 3.2 21:22:50 10° NNW 21:26:19 43° ENE 21:29:28 12° SE
STARLINK-1202 3.5 21:22:30 10° WSW 21:26:39 76° SSE 21:30:48 10° ENE
NOSS 3-2 (C) 4.2 21:19:43 10° NW 21:26:58 76° NE 21:35:16 10° SE
Cosmos 1766 3.4 21:25:02 10° N 21:29:02 68° ENE 21:32:47 11° SSE
Cosmos 1378 Rocket 3.6 21:24:39 10° S 21:29:04 87° E 21:33:28 10° NNE
STARLINK-1254 3.8 21:25:15 10° W 21:29:25 79° N 21:33:34 10° E
STARLINK-1098 4.3 21:25:49 10° W 21:29:42 39° SSW 21:33:11 12° SE
Cosmos 1867 4.4 21:26:46 10° NW 21:32:04 48° NE 21:37:21 10° ESE
STARLINK-1231 3.8 21:30:14 10° W 21:34:23 79° N 21:38:33 10° E
STARLINK-1123 4.4 21:30:48 10° W 21:34:38 37° SSW 21:37:56 13° SSE
STARLINK-1246 3.6 21:32:28 10° WSW 21:36:37 81° SSE 21:40:47 10° ENE
IGS 5A 4.5 21:32:57 10° S 21:36:55 43° W 21:40:55 10° NNW
Cosmos 1943 Rocket 2.6 21:33:13 10° S 21:38:25 43° ESE 21:43:41 10° NE
Cosmos 2297 3.7 21:32:45 10° SSW 21:38:27 83° ESE 21:44:13 10° NNE
NOSS 2-2 (E) 3.2 21:35:36 10° SSW 21:39:10 60° SE 21:43:21 10° NE
STARLINK-1232 3.8 21:35:14 10° W 21:39:23 79° N 21:43:33 10° E
STARLINK-1097 4.5 21:35:50 10° W 21:39:37 35° SSW 21:42:45 14° SSE
Cosmos 2082 Rocket 4.0 21:36:41 10° NW 21:41:14 25° WSW 21:45:46 10° SSW
STARLINK-1224 3.6 21:37:26 10° WSW 21:41:36 84° SSE 21:45:45 10° ENE
SeaSat 1 4.2 21:39:42 10° ENE 21:42:25 15° ESE 21:44:35 11° SE
SAR-Lupe-2 4.3 21:40:14 10° N 21:43:47 55° WNW 21:47:18 10° SSW
STARLINK-1208 3.7 21:40:12 10° W 21:44:21 79° N 21:48:31 10° E
Cosmos 1461 3.2 21:42:09 10° SW 21:46:20 77° NW 21:50:49 10° NE
STARLINK-1225 3.6 21:42:25 10° WSW 21:46:35 86° SSE 21:50:45 10° ENE
STARLINK-1212 2.8 21:44:29 10° WNW 21:47:37 85° S 21:50:44 10° ESE
STARLINK-1105 2.8 21:44:58 10° WNW 21:48:04 84° SSW 21:51:11 10° ESE
Cosmos 1975 Rocket 3.3 21:44:36 12° S 21:48:36 52° E 21:52:54 10° NNE
STARLINK-1247 2.8 21:45:50 10° WNW 21:48:58 84° SSW 21:52:05 10° ESE
STARLINK-1271 3.7 21:45:13 10° W 21:49:23 80° N 21:53:32 10° E
STARLINK-1227 2.8 21:46:19 10° WNW 21:49:27 83° SSW 21:52:32 10° ESE
BREEZE-M DEB (TANK) 4.1 21:34:22 10° SW 21:50:14 53° SSE 21:54:27 10° E
STARLINK-1226 2.8 21:47:11 10° WNW 21:50:19 83° SSW 21:53:23 10° ESE
BREEZE-M DEB (TANK) 3.0 21:46:43 10° W 21:51:08 61° S 21:54:39 10° E
STARLINK-1215 2.8 21:48:05 10° WNW 21:51:13 82° SSW 21:54:16 10° ESE
STARLINK-1230 3.6 21:47:23 10° WSW 21:51:33 88° SSE 21:55:43 10° ENE
STARLINK-1217 2.8 21:49:54 10° WNW 21:53:01 81° SSW 21:56:00 11° ESE
STARLINK-1229 2.8 21:50:48 10° WNW 21:53:56 81° SSW 21:56:54 11° ESE
STARLINK-1154 3.7 21:50:11 10° W 21:54:21 80° N 21:58:31 10° E
Cosmos 2369 Rocket 2.7 21:49:18 10° S 21:54:36 42° ESE 21:59:54 10° NE
STARLINK-1270 2.8 21:51:42 10° WNW 21:54:50 80° SSW 21:57:45 11° ESE
STARLINK-1243 3.6 21:52:23 10° WSW 21:56:33 90° NNE 22:00:43 10° E
STARLINK-1189 2.8 21:53:29 10° WNW 21:56:37 79° SSW 21:59:28 12° ESE
Aureole 3 Rocket 4.5 21:50:56 10° N 21:56:49 62° ENE 22:03:54 14° SSE
STARLINK-1188 2.8 21:54:24 10° WNW 21:57:32 78° SSW 22:00:22 12° ESE
STARLINK-1187 2.8 21:55:31 10° WNW 21:58:36 73° SSW 22:01:13 14° ESE
SPOT 5 3.5 21:53:31 10° S 21:58:40 60° W 22:04:00 10° NNW
STARLINK-1197 3.7 21:55:09 10° W 21:59:19 81° N 22:03:28 10° E
STARLINK-1191 2.7 21:56:51 10° WNW 21:59:57 76° SSW 22:02:39 13° ESE
ATLAS CENTAUR R/B 3.3 21:59:35 13° SE 22:00:19 13° ESE 22:02:19 10° E
STARLINK-1221 2.7 21:57:48 10° WNW 22:00:55 76° SSW 22:03:35 13° ESE
STARLINK-1236 3.6 21:57:21 10° W 22:01:31 88° N 22:05:41 10° E
STARLINK-1222 2.7 21:58:39 10° WNW 22:01:45 75° SSW 22:04:23 14° ESE
STARLINK-1214 2.8 21:59:33 10° WNW 22:02:39 75° SSW 22:05:16 14° ESE
NOSS 2-2 (C) 3.1 22:00:10 10° SW 22:03:45 79° SE 22:07:58 10° NE
Meteor 1-22 Rocket 4.5 21:58:00 10° NNW 22:03:55 71° W 22:09:05 13° S
STARLINK-1198 3.7 22:00:08 10° W 22:04:18 82° N 22:08:27 10° E
EXPRESS MD2 4.0 22:00:52 10° WSW 22:04:30 55° SSE 22:11:46 10° E
ERS-1 Rocket 3.8 21:59:53 10° S 22:04:42 45° W 22:09:34 10° NNW
Cosmos 1025 Rocket 4.1 22:02:58 16° SE 22:05:35 29° E 22:09:18 10° NNE
Okean 2 3.4 22:02:00 11° S 22:05:55 84° E 22:10:07 10° NNE
Cosmos 2026 Rocket 4.1 22:00:23 11° S 22:06:23 70° E 22:12:44 10° NNE
Cosmos 1553 Rocket 4.2 22:00:25 10° N 22:06:41 62° ENE 22:11:43 16° SSE
BREEZE M DEB (TANK) 2.6 22:03:14 10° WSW 22:06:51 37° S 22:08:33 14° ESE
ATLAS 2AS CENTAUR R/B 3.6 22:00:45 10° S 22:07:51 37° ESE 22:14:56 10° NE
Cosmos 1953 3.6 22:04:25 10° N 22:07:58 29° ENE 22:10:41 15° SE
NOSS 3-2 (A) 4.3 22:01:01 10° NW 22:08:16 59° SW 22:15:11 15° SSE
STARLINK-1228 3.2 22:05:00 10° WNW 22:08:27 63° SSW 22:11:08 16° ESE
Cosmos 1805 4.3 22:05:06 10° NNW 22:08:48 40° W 22:12:24 10° SSW
Cosmos 1470 2.9 22:05:22 10° N 22:09:13 59° ENE 22:11:51 19° SSE
STARLINK-1199 3.7 22:05:08 10° W 22:09:18 83° N 22:13:28 10° E
STARLINK-1235 3.0 22:07:43 10° WNW 22:10:56 61° SSW 22:13:12 18° ESE
STARLINK-1269 3.6 22:07:19 10° W 22:11:29 85° N 22:15:39 10° E
Cosmos 968 Rocket 3.5 22:08:24 10° NNW 22:13:37 85° ENE 22:17:31 18° SSE
STARLINK-1210 3.6 22:10:06 10° W 22:14:16 84° N 22:18:26 10° E
Cosmos 1455 Rocket 3.1 22:11:45 10° NNW 22:16:07 76° W 22:19:25 17° S
STARLINK-1200 3.7 22:12:17 10° W 22:16:27 84° N 22:20:37 10° E
STARLINK-1219 3.6 22:15:05 10° W 22:19:15 86° N 22:23:24 10° E
USA 238 DEB 4.3 22:13:13 10° NW 22:20:06 51° WSW 22:25:51 16° SSE
USA 238 4.3 22:13:19 10° NW 22:20:12 51° WSW 22:25:58 16° SSE
SL-4 R/B 3.1 22:20:18 11° E 22:21:08 13° ENE 22:22:18 10° NNE
STARLINK-1192 3.7 22:17:17 10° W 22:21:28 82° N 22:25:37 10° E
ATLAS 5 CENTAUR R/B 3.0 22:21:46 20° SE 22:21:46 20° SE 22:23:50 10° E
Cosmos 1758 3.4 22:18:39 10° N 22:22:44 73° ENE 22:25:25 21° SSE
STARLINK-1211 3.6 22:20:05 10° W 22:24:15 87° NNE 22:28:24 10° E
SL-4 R/B 3.0 22:21:33 10° SSW 22:25:50 33° SE 22:30:09 10° E
STARLINK-1244 3.7 22:22:16 10° W 22:26:25 81° N 22:30:36 10° E
Terra 2.7 22:23:15 13° SSW 22:27:18 43° W 22:31:52 10° NNW
Cosmos 1842 3.4 22:24:08 14° SSW 22:27:26 75° W 22:31:21 10° N
ERBS 4.0 22:24:47 10° WNW 22:27:53 35° N 22:31:00 10° ENE
STARLINK-1234 3.3 22:25:30 10° W 22:28:40 48° SSW 22:30:16 24° SE
Meteor 2-13 Rocket 4.5 22:23:30 12° S 22:29:12 86° E 22:35:24 10° NNE
STARLINK-1245 3.6 22:25:03 10° W 22:29:13 89° NNE 22:33:23 10° ESE
STARLINK-1138 3.7 22:27:15 10° W 22:31:25 81° N 22:35:35 10° E
Cosmos 1503 Rocket 4.0 22:28:25 10° NNW 22:33:45 89° ENE 22:37:35 20° SSE
STARLINK-1233 3.6 22:30:01 10° WNW 22:34:10 89° SSW 22:38:20 10° ESE
STARLINK-1209 3.4 22:31:41 10° W 22:34:49 43° SSW 22:36:13 26° SSE
STARLINK-1143 3.7 22:32:13 10° W 22:36:23 80° N 22:40:33 10° E
STARLINK-1204 3.5 22:35:00 10° WNW 22:39:10 87° SSW 22:43:19 10° ESE
Meteor 2-8 Rocket 4.5 22:33:24 10° N 22:39:35 79° ENE 22:44:07 19° SSE
SJ 16-02 4.0 22:39:12 10° NNE 22:41:08 13° NE 22:43:04 10° ENE
STARLINK-1241 3.7 22:37:14 10° W 22:41:24 79° N 22:45:34 10° E
STARLINK-1238 3.5 22:40:01 10° WNW 22:44:10 85° SSW 22:48:19 10° ESE
Cosmos 2263 4.2 22:39:18 13° SSW 22:44:23 69° ESE 22:49:59 10° NE
STARLINK-1239 3.7 22:42:13 10° W 22:46:23 79° N 22:50:33 10° E
Cosmos 1536 Rocket 3.6 22:45:44 22° S 22:48:24 64° E 22:52:45 10° NNE
STARLINK-1201 3.5 22:44:58 10° WNW 22:49:08 82° SSW 22:53:17 10° ESE
Cosmos 1674 4.2 22:48:20 18° ESE 22:49:53 23° E 22:52:56 10° NE
STARLINK-1240 3.7 22:47:11 10° W 22:51:21 79° N 22:55:31 10° E
Cosmos 1271 Rocket 2.7 22:49:29 21° SSW 22:52:01 88° WNW 22:55:59 10° NNE
Cosmos 1242 Rocket 3.0 22:49:25 17° SSW 22:52:08 61° WNW 22:55:48 10° N
Cosmos 1544 Rocket 4.3 22:48:41 10° NNW 22:52:50 45° W 22:55:47 18° SSW
Cosmos 1354 Rocket 4.1 22:47:46 10° NNW 22:53:04 74° WSW 22:56:35 22° SSE
STARLINK-1206 3.5 22:49:58 10° WNW 22:54:08 80° SSW 22:58:17 10° ESE
STARLINK-60 3.3 22:52:21 18° SW 22:54:23 41° SSE 22:57:25 10° E
Meteor 1-21 4.4 22:50:09 13° SSW 22:55:14 72° WNW 23:00:52 10° N
STARLINK-1216 3.7 22:52:10 10° W 22:56:20 79° N 23:00:29 10° E
STARLINK-1203 3.8 22:52:14 10° W 22:56:28 79° N 23:00:41 10° E
COSMOS 2455 3.3 22:52:50 20° S 22:56:34 42° ESE 23:02:11 10° NE
Spot 4 3.9 22:53:29 22° S 22:56:40 79° WSW 23:01:33 10° NNW
Cosmos 1833 4.5 22:51:59 10° NW 22:57:31 57° WSW 23:01:10 21° S
STARLINK-1205 3.5 22:54:56 10° WNW 22:59:05 77° SSW 23:03:07 11° ESE
Cosmos 2297 Rocket 3.7 22:55:06 10° NNW 23:00:08 31° NE 23:05:09 10° ESE
USA 215 3.2 22:53:51 10° ESE 23:00:25 84° SSW 23:07:02 10° WNW
STARLINK-1237 3.7 22:57:09 10° W 23:01:19 79° N 23:05:29 10° E
Cosmos 1707 2.7 22:59:44 23° SSW 23:02:05 84° W 23:06:01 10° N
Lacrosse 4 Rocket 4.2 23:00:34 10° NNW 23:03:34 18° NNE 23:06:30 10° ENE
STARLINK-1218 3.5 22:59:56 10° WNW 23:04:04 75° SSW 23:07:55 12° ESE
Helios 1A 3.9 23:01:35 18° SE 23:04:20 40° ENE 23:08:15 10° N
Cosmos 1726 2.1 23:01:45 10° NNW 23:05:29 82° W 23:07:20 28° S
STARLINK-1202 3.7 23:02:08 10° W 23:06:18 79° N 23:10:28 10° E
Cosmos 1174 4.1 23:06:36 30° SSE 23:07:29 36° ESE 23:11:01 10° NE
Timation 2 Rocket 4.2 23:01:26 10° NNW 23:07:49 69° NE 23:12:55 15° SE
Cosmos 2058 Rocket 4.5 23:05:00 10° N 23:08:57 30° ENE 23:11:58 15° SE
STARLINK-1254 3.5 23:04:54 10° WNW 23:09:02 72° SSW 23:12:41 13° ESE
COSMOS 2487 2.4 23:05:36 10° NNW 23:09:04 69° WSW 23:10:32 31° S
ALOS 2 2.6 23:07:47 24° SSE 23:10:23 76° ENE 23:14:48 10° NNW
CENTAUR R/B 3.6 23:04:48 10° NW 23:12:23 48° WSW 23:18:18 20° S
STARLINK-1231 3.5 23:09:53 10° WNW 23:14:01 69° SSW 23:17:27 14° ESE
Meteor 1-16 Rocket 4.1 23:08:48 10° NNW 23:14:22 83° W 23:17:49 23° S
Cosmos 1867 4.1 23:10:31 10° NW 23:15:43 46° WSW 23:18:45 23° S
ATLAS 3B R/B 2.7 23:09:14 10° NW 23:15:58 71° SW 23:21:09 19° SSE
STARLINK-1246 3.7 23:12:08 10° W 23:16:18 81° N 23:20:27 10° E
EO 1 Del DPAF 3.5 23:13:18 10° N 23:17:04 63° WNW 23:19:29 20° SSW
STARLINK-1232 3.5 23:14:52 10° WNW 23:19:00 66° SSW 23:22:15 16° ESE
Cosmos 1606 Rocket 3.7 23:14:52 10° N 23:19:11 64° ENE 23:21:36 25° SSE
FALCON 9 DEB 4.3 23:20:07 25° SE 23:20:07 25° SE 23:22:31 10° E
Cosmos 1992 Rocket 4.1 23:16:13 15° SSW 23:20:33 79° WNW 23:25:49 10° NNE
SeaSat 1 2.4 23:15:42 10° NNE 23:20:40 78° ESE 23:24:20 18° SSW
STARLINK-1224 3.7 23:17:06 10° W 23:21:16 81° N 23:25:26 10° E
Cosmos 1943 Rocket 3.3 23:16:54 10° WSW 23:22:12 43° NW 23:27:35 10° NNE
STARLINK-1212 4.1 23:20:30 10° W 23:22:54 25° SW 23:22:54 25° SW
STARLINK-1105 4.1 23:20:59 10° W 23:23:20 25° SW 23:23:20 25° SW
STARLINK-1208 3.6 23:19:50 10° WNW 23:23:56 63° SSW 23:27:00 17° SE
STARLINK-29 3.4 23:24:02 38° SSE 23:24:18 38° SSE 23:27:19 10° E
STARLINK-1247 4.1 23:21:52 10° W 23:24:14 25° SW 23:24:14 25° SW
STARLINK-1227 4.2 23:22:21 10° W 23:24:39 25° SW 23:24:39 25° SW
STARLINK-1226 4.2 23:23:13 10° W 23:25:31 24° SW 23:25:31 24° SW
STARLINK-1225 3.6 23:22:06 10° W 23:26:16 82° N 23:30:26 10° E
ATLAS CENTAUR R/B 1.5 23:24:38 10° NW 23:26:32 47° NNE 23:29:31 10° ESE
STARLINK-1215 4.2 23:24:07 10° W 23:26:23 24° SW 23:26:23 24° SW
STARLINK-1217 4.3 23:25:57 10° W 23:28:08 23° SW 23:28:08 23° SW
STARLINK-1271 3.6 23:24:51 10° WNW 23:28:56 60° SSW 23:31:49 19° SE
STARLINK-1229 4.3 23:26:53 10° W 23:29:01 23° SW 23:29:01 23° SW
NOSS 3-4 (A) 3.4 23:23:52 10° SW 23:29:48 79° SE 23:36:18 10° NE
NOSS 3-4 (C) 3.4 23:24:01 10° SW 23:29:55 78° SE 23:36:24 10° NE
STARLINK-1270 4.3 23:27:46 10° W 23:29:53 23° SW 23:29:53 23° SW
RESURS DK-1 3.2 23:29:48 27° SSE 23:31:14 34° ESE 23:35:01 10° NE
STARLINK-1230 3.6 23:27:04 10° W 23:31:14 84° N 23:35:24 10° E
STARLINK-1189 4.4 23:29:35 10° W 23:31:36 22° SW 23:31:36 22° SW
Cosmos 2315 Rocket 4.0 23:26:36 10° N 23:32:50 87° W 23:36:58 23° S
STARLINK-1188 4.4 23:30:30 10° W 23:32:29 21° SW 23:32:29 21° SW
STARLINK-1154 3.6 23:29:50 10° WNW 23:33:55 57° SSW 23:36:35 20° SE
Cosmos 2084 4.5 23:33:36 26° SSE 23:34:56 31° ESE 23:38:53 10° ENE
Cosmos 1340 Rocket 3.6 23:32:15 10° NNW 23:36:06 42° W 23:38:06 24° SSW
STARLINK-1243 3.6 23:32:04 10° W 23:36:14 85° N 23:40:24 10° E
Cosmos 2227 Rocket 3.2 23:31:51 10° NNW 23:37:18 44° NE 23:42:44 10° ESE
Cosmos 1626 3.4 23:36:00 21° SE 23:37:29 28° E 23:40:44 10° NNE
ATLAS CENTAUR R/B 1.3 23:35:42 20° SW 23:38:39 78° SE 23:42:43 10° NE
Cosmos 2369 Rocket 3.2 23:33:14 10° WSW 23:38:39 44° NW 23:44:04 10° NNE
STARLINK-1197 3.7 23:34:47 10° WNW 23:38:51 54° SSW 23:41:21 22° SE
Okean 1-7 Rocket 4.5 23:37:39 23° SE 23:39:56 39° E 23:44:10 10° NNE
Cosmos 1908 3.2 23:36:58 10° NNW 23:40:46 71° W 23:42:29 31° S
STARLINK-1236 3.6 23:37:02 10° W 23:41:13 87° NNE 23:45:22 10° E
Cosmos 1025 Rocket 4.3 23:39:50 14° SW 23:43:06 35° WNW 23:47:05 10° N
Thor Agena Rocket 4.4 23:38:03 10° N 23:43:08 47° WNW 23:47:47 12° SW
Aureole 3 3.5 23:40:25 10° NNW 23:43:32 40° W 23:44:31 30° SW
STARLINK-1198 3.7 23:39:46 10° WNW 23:43:48 51° SSW 23:46:07 23° SE
Cosmos 1953 3.6 23:40:50 10° NNW 23:44:21 30° W 23:46:22 19° SW
STARLINK-1199 3.8 23:44:47 10° WNW 23:48:47 49° SSW 23:50:55 24° SE
Landsat 4 4.1 23:45:53 10° NNE 23:49:31 49° E 23:51:00 30° SSE
SL-4 R/B 2.6 23:50:08 19° W 23:50:08 19° W 23:51:41 10° NW
STARLINK-1269 3.5 23:47:01 10° W 23:51:11 90° WSW 23:55:21 10° ESE
Cosmos 1656 Rocket 4.1 23:46:09 10° SW 23:51:40 60° NW 23:57:11 10° NNE
STARLINK-1210 3.9 23:49:45 10° WNW 23:53:44 46° SSW 23:55:41 26° SSE
KORONAS-FOTON 3.8 23:52:25 30° SSW 23:54:13 80° W 23:58:07 10° N
